Location: Ottawa
(45.4170°N, 75.7000°W)
Time: 08:16:42
(UTC-04:00)

ISS - Visible Passes

Search period start: 16 June 2025 00:00
Search period end: 26 June 2025 00:00
Orbit: 415 x 417 km, 51.6° (Epoch: 15 June)

Date Brightness Start Highest point End Pass type
(mag) Time Alt. Az. Time Alt. Az. Time Alt. Az.
21 Jun -1.3 03:58:26 10° SSE 04:00:10 14° SE 04:01:54 10° ESE visible
23 Jun -2.6 03:56:58 16° SSW 03:59:11 32° SE 04:02:13 10° ENE visible
24 Jun -2.0 03:10:01 19° SSE 03:10:36 20° SE 03:13:09 10° E visible
25 Jun -1.2 02:22:59 11° ESE 02:22:59 11° ESE 02:23:32 10° ESE visible
25 Jun -3.8 03:55:51 17° SW 03:58:18 79° SSE 04:01:40 10° ENE visible
